Location: Most
(50.5133°N, 13.6207°E)
Time: 01:59:31
(UTC+02:00)

Nauka - Pass Details

Date: 19 September 2021
Orbit: 418 x 423 km, 51.6° (Epoch: 18 October)

Event Time Altitude Azimuth Distance (km) Brightness Sun altitude
Rises 19:57:31 0° 219° (SW) 2,353 ? -8.3°
Reaches altitude 10° 19:59:46 10° 208° (SSW) 1,494 ? -8.6°
Maximum altitude 20:02:42 28° 147° (SSE) 817 ? -9.1°
Enters shadow 20:05:06 13° 91° (E) 1,313 ? -9.5°
